Location: *
(48.4333°N, 5.0333°W)
Time: 22:17:58
(UTC+00:00)

CZ-4C R/B - Pass Details

Date: 09 April 2020
Orbit: 637 x 1365 km, 63.4° (Epoch: 05 June)

Event Time Altitude Azimuth Distance (km) Brightness Sun altitude
Rises 22:36:23 0° 318° (NW) 3,797 6.7 -29.0°
Reaches altitude 10° 22:38:51 10° 317° (NW) 2,939 5.9 -29.2°
Maximum altitude 22:46:00 77° 233° (SW) 1,255 2.9 -29.8°
Enters shadow 22:46:54 69° 180° (S) 1,314 2.8 -29.8°
